| time (UTC) | temp F | wind direction | speed MPH | gust MPH | rain 1hr in | rain 24hr in | rain mn in | humidity % | barometer mb |
| 20260507004006 | 74 | 180 | 5.0 | 8.0 | 0.00 | 0.00 | 0.00 | 53 | 1018.1 |
| 20260507003500 | 74 | 197 | 2.0 | 6.0 | 0.00 | 0.00 | 0.00 | 53 | 1018.1 |
| 20260507002955 | 74 | 212 | 3.0 | 9.0 | 0.00 | 0.00 | 0.00 | 52 | 1018.0 |
| 20260507002452 | 75 | 195 | 4.0 | 8.0 | 0.00 | 0.00 | 0.00 | 52 | 1018.1 |
| 20260507001949 | 75 | 170 | 5.0 | 9.0 | 0.00 | 0.00 | 0.00 | 52 | 1018.0 |
| 20260507001446 | 75 | 223 | 7.0 | 9.0 | 0.00 | 0.00 | 0.00 | 52 | 1017.8 |
| 20260507000943 | 75 | 202 | 4.0 | 9.0 | 0.00 | 0.00 | 0.00 | 51 | 1018.0 |
| 20260507000439 | 75 | 242 | 3.0 | 8.0 | 0.00 | 0.00 | 0.00 | 52 | 1017.9 |
| 20260506235934 | 75 | 214 | 7.0 | 9.0 | 0.00 | 0.00 | 0.00 | 51 | 1018.0 |
| 20260506235433 | 76 | 294 | 6.0 | 8.0 | 0.00 | 0.00 | 0.00 | 51 | 1017.8 |
| 20260506234932 | 76 | 271 | 7.0 | 8.0 | 0.00 | 0.00 | 0.00 | 50 | 1018.0 |
| 20260506234431 | 76 | 264 | 9.0 | 10.0 | 0.00 | 0.00 | 0.00 | 50 | 1017.9 |
| 20260506233928 | 76 | 160 | 3.0 | 10.0 | 0.00 | 0.00 | 0.00 | 50 | 1017.8 |
| 20260506233425 | 76 | 189 | 4.0 | 9.0 | 0.00 | 0.00 | 0.00 | 48 | 1018.1 |
| 20260506232921 | 76 | 177 | 3.0 | 10.0 | 0.00 | 0.00 | 0.00 | 47 | 1017.8 |
| 20260506232418 | 76 | 253 | 4.0 | 7.0 | 0.00 | 0.00 | 0.00 | 47 | 1017.9 |
| 20260506231913 | 76 | 167 | 2.0 | 8.0 | 0.00 | 0.00 | 0.00 | 48 | 1017.8 |
| 20260506231411 | 76 | 242 | 6.0 | 11.0 | 0.00 | 0.00 | 0.00 | 47 | 1018.1 |
| 20260506230909 | 76 | 236 | 3.0 | 8.0 | 0.00 | 0.00 | 0.00 | 48 | 1018.1 |
| 20260506230405 | 76 | 157 | 5.0 | 8.0 | 0.00 | 0.00 | 0.00 | 47 | 1018.1 |
| 20260506225901 | 75 | 177 | 4.0 | 10.0 | 0.00 | 0.00 | 0.00 | 47 | 1018.1 |
| 20260506225359 | 76 | 184 | 4.0 | 10.0 | 0.00 | 0.00 | 0.00 | 47 | 1018.2 |
| 20260506224855 | 75 | 191 | 6.0 | 8.0 | 0.00 | 0.00 | 0.00 | 47 | 1018.2 |
| 20260506224353 | 76 | 211 | 5.0 | 10.0 | 0.00 | 0.00 | 0.00 | 47 | 1018.3 |
| 20260506223849 | 77 | 160 | 4.0 | 7.0 | 0.00 | 0.00 | 0.00 | 47 | 1018.4 |
| 20260506223344 | 75 | 166 | 1.0 | 8.0 | 0.00 | 0.00 | 0.00 | 48 | 1018.4 |
| 20260506222842 | 76 | 319 | 5.0 | 7.0 | 0.00 | 0.00 | 0.00 | 47 | 1018.6 |
| 20260506222337 | 75 | 234 | 7.0 | 9.0 | 0.00 | 0.00 | 0.00 | 47 | 1018.6 |
| 20260506221835 | 74 | 196 | 6.0 | 9.0 | 0.00 | 0.00 | 0.00 | 49 | 1018.6 |
| 20260506221332 | 76 | 201 | 10.0 | 11.0 | 0.00 | 0.00 | 0.00 | 47 | 1018.7 |
| 20260506220830 | 76 | 247 | 7.0 | 11.0 | 0.00 | 0.00 | 0.00 | 48 | 1018.6 |
| 20260506220325 | 76 | 260 | 6.0 | 8.0 | 0.00 | 0.00 | 0.00 | 47 | 1018.9 |
| 20260506215822 | 75 | 179 | 2.0 | 6.0 | 0.00 | 0.00 | 0.00 | 48 | 1018.8 |
| 20260506215318 | 74 | 236 | 3.0 | 4.0 | 0.00 | 0.00 | 0.00 | 50 | 1018.8 |
| 20260506214814 | 74 | 210 | 3.0 | 4.0 | 0.00 | 0.00 | 0.00 | 50 | 1018.6 |
| 20260506214311 | 74 | 188 | 3.0 | 8.0 | 0.00 | 0.00 | 0.00 | 50 | 1019.0 |
| 20260506213810 | 74 | 198 | 5.0 | 10.0 | 0.00 | 0.00 | 0.00 | 49 | 1019.0 |
| 20260506213306 | 74 | 160 | 1.0 | 6.0 | 0.00 | 0.00 | 0.00 | 50 | 1018.9 |
| 20260506212803 | 74 | 239 | 3.0 | 6.0 | 0.00 | 0.00 | 0.00 | 49 | 1019.4 |
| 20260506212259 | 75 | 229 | 8.0 | 10.0 | 0.00 | 0.00 | 0.00 | 49 | 1019.1 |
| 20260506211754 | 75 | 233 | 5.0 | 6.0 | 0.00 | 0.00 | 0.00 | 49 | 1019.4 |
| 20260506211251 | 74 | 319 | 3.0 | 6.0 | 0.00 | 0.00 | 0.00 | 48 | 1019.2 |
| 20260506210748 | 74 | 165 | 1.0 | 7.0 | 0.00 | 0.00 | 0.00 | 49 | 1019.4 |
| 20260506210245 | 74 | 194 | 3.0 | 4.0 | 0.00 | 0.00 | 0.00 | 48 | 1019.7 |
| 20260506205742 | 73 | 215 | 3.0 | 10.0 | 0.00 | 0.00 | 0.00 | 50 | 1019.4 |
| 20260506205237 | 73 | 198 | 3.0 | 4.0 | 0.00 | 0.00 | 0.00 | 50 | 1019.6 |
| 20260506204735 | 73 | 205 | 4.0 | 11.0 | 0.00 | 0.00 | 0.00 | 50 | 1019.7 |
| 20260506204232 | 73 | 219 | 3.0 | 8.0 | 0.00 | 0.00 | 0.00 | 49 | 1020.0 |
| 20260506203730 | 74 | 199 | 2.0 | 8.0 | 0.00 | 0.00 | 0.00 | 49 | 1019.9 |
| 20260506203226 | 74 | 142 | 4.0 | 6.0 | 0.00 | 0.00 | 0.00 | 47 | 1019.8 |
| 20260506202724 | 72 | 171 | 1.0 | 6.0 | 0.00 | 0.00 | 0.00 | 51 | 1020.0 |
| 20260506202221 | 72 | 193 | 3.0 | 7.0 | 0.00 | 0.00 | 0.00 | 52 | 1020.1 |
| 20260506201717 | 72 | 206 | 5.0 | 7.0 | 0.00 | 0.00 | 0.00 | 50 | 1019.8 |
| 20260506201214 | 71 | 233 | 6.0 | 7.0 | 0.00 | 0.00 | 0.00 | 52 | 1020.0 |
| 20260506200711 | 71 | 182 | 2.0 | 7.0 | 0.00 | 0.00 | 0.00 | 51 | 1020.0 |
| 20260506200208 | 70 | 181 | 1.0 | 1.0 | 0.00 | 0.00 | 0.00 | 52 | 1020.3 |
| 20260506195705 | 71 | 150 | 4.0 | 7.0 | 0.00 | 0.00 | 0.00 | 50 | 1020.0 |
| 20260506195201 | 72 | 231 | 4.0 | 6.0 | 0.00 | 0.00 | 0.00 | 49 | 1020.5 |
| 20260506194658 | 71 | 94 | 1.0 | 4.0 | 0.00 | 0.00 | 0.00 | 51 | 1020.3 |
| 20260506194154 | 70 | 178 | 4.0 | 7.0 | 0.00 | 0.00 | 0.00 | 52 | 1020.4 |
| 20260506193652 | 70 | 283 | 5.0 | 7.0 | 0.00 | 0.00 | 0.00 | 50 | 1020.5 |
| 20260506193149 | 71 | 174 | 3.0 | 4.0 | 0.00 | 0.00 | 0.00 | 49 | 1020.7 |
| 20260506192646 | 70 | 221 | 2.0 | 3.0 | 0.00 | 0.00 | 0.00 | 50 | 1020.9 |
| 20260506192142 | 69 | 129 | 2.0 | 3.0 | 0.00 | 0.00 | 0.00 | 51 | 1020.9 |
| 20260506191639 | 69 | 222 | 1.0 | 3.0 | 0.00 | 0.00 | 0.00 | 52 | 1021.0 |
| 20260506191135 | 71 | 193 | 2.0 | 6.0 | 0.00 | 0.00 | 0.00 | 50 | 1020.6 |
| 20260506190632 | 69 | 155 | 1.0 | 2.0 | 0.00 | 0.00 | 0.00 | 51 | 1021.0 |
| 20260506190129 | 69 | 155 | 1.0 | 3.0 | 0.00 | 0.00 | 0.00 | 52 | 1021.1 |
| 20260506185626 | 67 | 157 | 0.0 | 6.0 | 0.00 | 0.00 | 0.00 | 53 | 1021.1 |
| 20260506185122 | 69 | 149 | 2.0 | 4.0 | 0.00 | 0.00 | 0.00 | 53 | 1021.1 |
| 20260506184620 | 68 | 166 | 2.0 | 3.0 | 0.00 | 0.00 | 0.00 | 52 | 1021.4 |
| 20260506184117 | 67 | 181 | 2.0 | 6.0 | 0.00 | 0.00 | 0.00 | 55 | 1021.2 |
| 20260506183614 | 67 | 104 | 1.0 | 1.0 | 0.00 | 0.00 | 0.00 | 53 | 1021.4 |
| 20260506183109 | 67 | 196 | 3.0 | 3.0 | 0.00 | 0.00 | 0.00 | 54 | 1021.7 |
| 20260506182608 | 66 | 150 | 0.0 | 3.0 | 0.00 | 0.00 | 0.00 | 55 | 1021.4 |
| 20260506182104 | 66 | 160 | 3.0 | 4.0 | 0.00 | 0.00 | 0.00 | 55 | 1021.5 |
| 20260506181602 | 66 | 166 | 4.0 | 7.0 | 0.00 | 0.00 | 0.00 | 55 | 1021.4 |
| 20260506181059 | 65 | 162 | 1.0 | 2.0 | 0.00 | 0.00 | 0.00 | 58 | 1021.4 |
| 20260506180555 | 65 | 147 | 0.0 | 6.0 | 0.00 | 0.00 | 0.00 | 58 | 1021.5 |
| 20260506180052 | 65 | 167 | 1.0 | 2.0 | 0.00 | 0.00 | 0.00 | 56 | 1021.4 |
| 20260506175548 | 65 | 159 | 3.0 | 3.0 | 0.00 | 0.00 | 0.00 | 57 | 1021.5 |
| 20260506175045 | 65 | 165 | 0.0 | 3.0 | 0.00 | 0.00 | 0.00 | 59 | 1021.4 |
| 20260506174544 | 65 | 211 | 3.0 | 6.0 | 0.00 | 0.00 | 0.00 | 59 | 1021.4 |
| 20260506174039 | 65 | 177 | 1.0 | 1.0 | 0.00 | 0.00 | 0.00 | 58 | 1021.5 |
| 20260506173537 | 64 | 162 | 0.0 | 2.0 | 0.00 | 0.00 | 0.00 | 61 | 1021.5 |
| 20260506173033 | 63 | 198 | 3.0 | 6.0 | 0.00 | 0.00 | 0.00 | 61 | 1021.5 |
| 20260506172531 | 64 | 153 | 1.0 | 7.0 | 0.00 | 0.00 | 0.00 | 61 | 1021.7 |
| 20260506172027 | 63 | 158 | 0.0 | 3.0 | 0.00 | 0.00 | 0.00 | 63 | 1021.5 |
| 20260506171525 | 62 | 149 | 4.0 | 4.0 | 0.00 | 0.00 | 0.00 | 63 | 1021.5 |
| 20260506171022 | 62 | 176 | 3.0 | 6.0 | 0.00 | 0.00 | 0.00 | 64 | 1021.4 |
| 20260506170520 | 63 | 184 | 4.0 | 6.0 | 0.00 | 0.00 | 0.00 | 63 | 1021.5 |
| 20260506170018 | 62 | 173 | 2.0 | 6.0 | 0.00 | 0.00 | 0.00 | 65 | 1021.4 |
| 20260506165516 | 61 | 153 | 0.0 | 3.0 | 0.00 | 0.00 | 0.00 | 65 | 1021.6 |
| 20260506165011 | 63 | 227 | 2.0 | 3.0 | 0.00 | 0.00 | 0.00 | 63 | 1021.7 |
| 20260506164508 | 62 | 158 | 0.0 | 2.0 | 0.00 | 0.00 | 0.00 | 65 | 1021.6 |
| 20260506164006 | 61 | 144 | 1.0 | 3.0 | 0.00 | 0.00 | 0.00 | 66 | 1021.6 |
| 20260506163501 | 62 | 153 | 2.0 | 4.0 | 0.00 | 0.00 | 0.00 | 65 | 1021.5 |
| 20260506162956 | 60 | 179 | 3.0 | 4.0 | 0.00 | 0.00 | 0.00 | 66 | 1021.7 |
| 20260506162454 | 61 | 161 | 1.0 | 2.0 | 0.00 | 0.00 | 0.00 | 68 | 1021.5 |
| 20260506161951 | 60 | 165 | 1.0 | 3.0 | 0.00 | 0.00 | 0.00 | 68 | 1021.8 |
| 20260506161449 | 60 | 154 | 2.0 | 4.0 | 0.00 | 0.00 | 0.00 | 69 | 1021.4 |
| 20260506160946 | 60 | 178 | 2.0 | 3.0 | 0.00 | 0.00 | 0.00 | 71 | 1021.7 |
| 20260506160443 | 59 | 140 | 2.0 | 4.0 | 0.00 | 0.00 | 0.00 | 71 | 1021.5 |
| 20260506155940 | 60 | 170 | 3.0 | 6.0 | 0.00 | 0.00 | 0.00 | 70 | 1021.5 |
| 20260506155438 | 59 | 171 | 3.0 | 4.0 | 0.00 | 0.00 | 0.00 | 72 | 1021.5 |
| 20260506153605 | 58 | 154 | 0.0 | 1.0 | 0.00 | 0.00 | 0.00 | 74 | 1021.4 |
| 20260506153102 | 58 | 155 | 0.0 | 2.0 | 0.00 | 0.00 | 0.00 | 74 | 1021.5 |
| 20260506152559 | 59 | 169 | 1.0 | 2.0 | 0.00 | 0.00 | 0.00 | 75 | 1021.5 |
| 20260506152057 | 58 | 168 | 0.0 | 2.0 | 0.00 | 0.00 | 0.00 | 76 | 1021.5 |
| 20260506151555 | 58 | 162 | 2.0 | 3.0 | 0.00 | 0.00 | 0.00 | 76 | 1021.5 |
| 20260506151052 | 57 | 156 | 1.0 | 2.0 | 0.00 | 0.00 | 0.00 | 78 | 1021.6 |
| 20260506150548 | 57 | 155 | 1.0 | 2.0 | 0.00 | 0.00 | 0.00 | 78 | 1021.5 |
| 20260506150045 | 56 | 171 | 1.0 | 2.0 | 0.00 | 0.00 | 0.00 | 79 | 1021.5 |
| 20260506145542 | 56 | 153 | 0.0 | 1.0 | 0.00 | 0.00 | 0.00 | 79 | 1021.6 |
| 20260506145039 | 56 | 155 | 1.0 | 2.0 | 0.00 | 0.00 | 0.00 | 80 | 1021.5 |
| 20260506144536 | 56 | 150 | 1.0 | 2.0 | 0.00 | 0.00 | 0.00 | 80 | 1021.6 |
| 20260506144033 | 56 | 161 | 1.0 | 3.0 | 0.00 | 0.00 | 0.00 | 81 | 1021.5 |
| 20260506143531 | 55 | 157 | 1.0 | 3.0 | 0.00 | 0.00 | 0.00 | 81 | 1021.4 |
| 20260506143029 | 56 | 141 | 2.0 | 2.0 | 0.00 | 0.00 | 0.00 | 81 | 1021.5 |
| 20260506142526 | 56 | 154 | 0.0 | 0.0 | 0.00 | 0.00 | 0.00 | 81 | 1021.2 |
| 20260506142024 | 56 | 159 | 0.0 | 0.0 | 0.00 | 0.00 | 0.00 | 82 | 1021.4 |
| 20260506141522 | 55 | 155 | 0.0 | 0.0 | 0.00 | 0.00 | 0.00 | 87 | 1021.5 |
| 20260506141020 | 53 | 154 | 0.0 | 0.0 | 0.00 | 0.00 | 0.00 | 89 | 1021.5 |
| 20260506140517 | 51 | 145 | 0.0 | 0.0 | 0.00 | 0.00 | 0.00 | 90 | 1021.6 |
| 20260506140014 | 51 | 156 | 0.0 | 0.0 | 0.00 | 0.00 | 0.00 | 91 | 1021.3 |
| 20260506135511 | 50 | 156 | 0.0 | 0.0 | 0.00 | 0.00 | 0.00 | 91 | 1021.4 |
| 20260506135007 | 49 | 156 | 0.0 | 0.0 | 0.00 | 0.00 | 0.00 | 92 | 1021.3 |
| 20260506134503 | 49 | 158 | 0.0 | 0.0 | 0.00 | 0.00 | 0.00 | 92 | 1021.3 |
| 20260506133959 | 49 | 157 | 0.0 | 0.0 | 0.00 | 0.00 | 0.00 | 92 | 1021.2 |
| 20260506133457 | 48 | 155 | 0.0 | 0.0 | 0.00 | 0.00 | 0.00 | 92 | 1021.1 |
| 20260506132954 | 48 | 156 | 0.0 | 0.0 | 0.00 | 0.00 | 0.00 | 92 | 1021.1 |
| 20260506132451 | 48 | 158 | 0.0 | 0.0 | 0.00 | 0.00 | 0.00 | 92 | 1021.1 |
| 20260506131948 | 48 | 157 | 0.0 | 0.0 | 0.00 | 0.00 | 0.00 | 92 | 1020.9 |
| 20260506131444 | 47 | 155 | 0.0 | 0.0 | 0.00 | 0.00 | 0.00 | 92 | 1021.3 |
| 20260506130942 | 47 | 153 | 0.0 | 0.0 | 0.00 | 0.00 | 0.00 | 92 | 1020.9 |
| 20260506130438 | 47 | 158 | 0.0 | 0.0 | 0.00 | 0.00 | 0.00 | 92 | 1020.8 |
| 20260506125936 | 47 | 158 | 0.0 | 0.0 | 0.00 | 0.00 | 0.00 | 92 | 1020.7 |
| 20260506125434 | 48 | 156 | 0.0 | 0.0 | 0.00 | 0.00 | 0.00 | 92 | 1020.7 |
| 20260506124932 | 48 | 157 | 0.0 | 0.0 | 0.00 | 0.00 | 0.00 | 92 | 1020.7 |
| 20260506124429 | 48 | 160 | 0.0 | 0.0 | 0.00 | 0.00 | 0.00 | 92 | 1020.5 |
| 20260506123927 | 48 | 158 | 0.0 | 0.0 | 0.00 | 0.00 | 0.00 | 92 | 1020.6 |
| 20260506123425 | 48 | 157 | 0.0 | 0.0 | 0.00 | 0.00 | 0.00 | 92 | 1020.6 |
| 20260506122922 | 48 | 155 | 0.0 | 0.0 | 0.00 | 0.00 | 0.00 | 92 | 1020.5 |
| 20260506122419 | 48 | 167 | 0.0 | 0.0 | 0.00 | 0.00 | 0.00 | 92 | 1020.6 |
| 20260506121917 | 47 | 157 | 0.0 | 0.0 | 0.00 | 0.00 | 0.00 | 91 | 1020.5 |
| 20260506121414 | 48 | 155 | 0.0 | 0.0 | 0.00 | 0.00 | 0.00 | 91 | 1020.4 |
| 20260506120911 | 48 | 157 | 0.0 | 0.0 | 0.00 | 0.00 | 0.00 | 91 | 1020.4 |
| 20260506120408 | 48 | 159 | 0.0 | 0.0 | 0.00 | 0.00 | 0.00 | 91 | 1020.4 |
| 20260506115905 | 48 | 155 | 0.0 | 0.0 | 0.00 | 0.00 | 0.00 | 91 | 1020.3 |
| 20260506115403 | 48 | 156 | 0.0 | 0.0 | 0.00 | 0.00 | 0.00 | 91 | 1020.5 |
| 20260506114901 | 48 | 157 | 0.0 | 0.0 | 0.00 | 0.00 | 0.00 | 91 | 1020.5 |
| 20260506114359 | 48 | 151 | 0.0 | 0.0 | 0.00 | 0.00 | 0.00 | 91 | 1020.6 |
| 20260506113858 | 48 | 158 | 0.0 | 0.0 | 0.00 | 0.00 | 0.00 | 91 | 1020.4 |
| 20260506113354 | 48 | 150 | 0.0 | 0.0 | 0.00 | 0.00 | 0.00 | 91 | 1020.6 |
| 20260506112851 | 48 | 154 | 0.0 | 0.0 | 0.00 | 0.00 | 0.00 | 91 | 1020.4 |
| 20260506112348 | 48 | 157 | 0.0 | 0.0 | 0.00 | 0.00 | 0.00 | 91 | 1020.4 |
| 20260506111845 | 48 | 157 | 0.0 | 0.0 | 0.00 | 0.00 | 0.00 | 91 | 1020.3 |
| 20260506111344 | 48 | 157 | 0.0 | 0.0 | 0.00 | 0.00 | 0.00 | 91 | 1020.4 |
| 20260506110841 | 48 | 156 | 0.0 | 0.0 | 0.00 | 0.00 | 0.00 | 91 | 1020.4 |
| 20260506110338 | 49 | 155 | 0.0 | 0.0 | 0.00 | 0.00 | 0.00 | 91 | 1020.5 |
| 20260506105835 | 48 | 156 | 0.0 | 0.0 | 0.00 | 0.00 | 0.00 | 91 | 1020.5 |
| 20260506105331 | 49 | 153 | 0.0 | 0.0 | 0.00 | 0.00 | 0.00 | 91 | 1020.3 |
| 20260506104829 | 49 | 156 | 0.0 | 0.0 | 0.00 | 0.00 | 0.00 | 91 | 1020.4 |
| 20260506104326 | 49 | 155 | 0.0 | 0.0 | 0.00 | 0.00 | 0.00 | 91 | 1020.4 |
| 20260506103824 | 49 | 157 | 0.0 | 0.0 | 0.00 | 0.00 | 0.00 | 91 | 1020.3 |
| 20260506103321 | 49 | 158 | 0.0 | 0.0 | 0.00 | 0.00 | 0.00 | 91 | 1020.5 |
| 20260506102818 | 49 | 156 | 0.0 | 0.0 | 0.00 | 0.00 | 0.00 | 91 | 1020.6 |
| 20260506102316 | 49 | 158 | 0.0 | 0.0 | 0.00 | 0.00 | 0.00 | 90 | 1020.5 |
| 20260506101813 | 49 | 156 | 0.0 | 0.0 | 0.00 | 0.00 | 0.00 | 90 | 1020.4 |
| 20260506101309 | 49 | 156 | 0.0 | 0.0 | 0.00 | 0.00 | 0.00 | 90 | 1020.3 |
| 20260506100807 | 49 | 158 | 0.0 | 0.0 | 0.00 | 0.00 | 0.00 | 90 | 1020.1 |
| 20260506100305 | 49 | 157 | 0.0 | 0.0 | 0.00 | 0.00 | 0.00 | 90 | 1020.4 |
| 20260506095804 | 49 | 157 | 0.0 | 0.0 | 0.00 | 0.00 | 0.00 | 90 | 1020.5 |
| 20260506095300 | 49 | 156 | 0.0 | 0.0 | 0.00 | 0.00 | 0.00 | 90 | 1020.5 |
| 20260506094756 | 49 | 151 | 0.0 | 0.0 | 0.00 | 0.00 | 0.00 | 90 | 1020.6 |
| 20260506094255 | 49 | 154 | 0.0 | 0.0 | 0.00 | 0.00 | 0.00 | 90 | 1020.4 |
| 20260506093753 | 49 | 156 | 0.0 | 0.0 | 0.00 | 0.00 | 0.00 | 90 | 1020.3 |
| 20260506093250 | 49 | 154 | 0.0 | 0.0 | 0.00 | 0.00 | 0.00 | 90 | 1020.3 |
| 20260506092748 | 50 | 158 | 0.0 | 0.0 | 0.00 | 0.00 | 0.00 | 89 | 1020.4 |
| 20260506092246 | 50 | 157 | 0.0 | 1.0 | 0.00 | 0.00 | 0.00 | 89 | 1020.3 |
| 20260506091743 | 50 | 157 | 1.0 | 1.0 | 0.00 | 0.00 | 0.00 | 90 | 1020.5 |
| 20260506091240 | 50 | 166 | 0.0 | 1.0 | 0.00 | 0.00 | 0.00 | 90 | 1020.3 |
| 20260506090738 | 49 | 165 | 0.0 | 1.0 | 0.00 | 0.00 | 0.00 | 90 | 1020.6 |
| 20260506090234 | 49 | 156 | 0.0 | 0.0 | 0.00 | 0.00 | 0.00 | 90 | 1020.7 |
| 20260506085731 | 49 | 155 | 0.0 | 0.0 | 0.00 | 0.00 | 0.00 | 89 | 1020.6 |
| 20260506085228 | 50 | 154 | 0.0 | 0.0 | 0.00 | 0.00 | 0.00 | 89 | 1020.6 |
| 20260506084724 | 50 | 157 | 0.0 | 0.0 | 0.00 | 0.00 | 0.00 | 89 | 1020.5 |
| 20260506084220 | 50 | 154 | 0.0 | 0.0 | 0.00 | 0.00 | 0.00 | 89 | 1020.6 |
| 20260506083718 | 50 | 156 | 0.0 | 0.0 | 0.00 | 0.00 | 0.00 | 89 | 1020.8 |
| 20260506083216 | 50 | 156 | 0.0 | 0.0 | 0.00 | 0.00 | 0.00 | 89 | 1020.8 |
| 20260506082713 | 50 | 156 | 0.0 | 0.0 | 0.00 | 0.00 | 0.00 | 89 | 1020.8 |
| 20260506082208 | 51 | 160 | 0.0 | 0.0 | 0.00 | 0.00 | 0.00 | 89 | 1020.7 |
| 20260506081706 | 51 | 157 | 0.0 | 1.0 | 0.00 | 0.00 | 0.00 | 89 | 1020.9 |
| 20260506081203 | 51 | 161 | 0.0 | 0.0 | 0.00 | 0.00 | 0.00 | 88 | 1020.8 |
| 20260506080701 | 51 | 156 | 0.0 | 0.0 | 0.00 | 0.00 | 0.00 | 88 | 1020.8 |
| 20260506080158 | 51 | 158 | 0.0 | 1.0 | 0.00 | 0.00 | 0.00 | 88 | 1020.8 |
| 20260506073142 | 52 | 158 | 0.0 | 0.0 | 0.00 | 0.00 | 0.00 | 86 | 1020.7 |
| 20260506072638 | 52 | 156 | 0.0 | 0.0 | 0.00 | 0.00 | 0.00 | 85 | 1020.7 |
| 20260506072136 | 52 | 158 | 0.0 | 0.0 | 0.00 | 0.00 | 0.00 | 85 | 1021.0 |
| 20260506071633 | 52 | 156 | 0.0 | 0.0 | 0.00 | 0.00 | 0.00 | 84 | 1020.7 |
| 20260506071131 | 53 | 157 | 0.0 | 0.0 | 0.00 | 0.00 | 0.00 | 84 | 1020.7 |
| 20260506070628 | 53 | 160 | 0.0 | 0.0 | 0.00 | 0.00 | 0.00 | 83 | 1020.9 |
| 20260506070125 | 53 | 170 | 1.0 | 1.0 | 0.00 | 0.00 | 0.00 | 83 | 1020.7 |
| 20260506062103 | 55 | 176 | 1.0 | 2.0 | 0.00 | 0.19 | 0.19 | 79 | 1020.1 |
| 20260506061558 | 55 | 168 | 1.0 | 2.0 | 0.00 | 0.19 | 0.19 | 79 | 1020.3 |
| 20260506061056 | 55 | 159 | 0.0 | 1.0 | 0.00 | 0.19 | 0.19 | 78 | 1020.3 |
| 20260506060554 | 55 | 166 | 1.0 | 1.0 | 0.00 | 0.19 | 0.19 | 78 | 1020.1 |
| 20260506051023 | 56 | 161 | 0.0 | 2.0 | 0.00 | 0.19 | 0.19 | 75 | 1019.9 |
| 20260506050521 | 56 | 182 | 1.0 | 2.0 | 0.00 | 0.19 | 0.19 | 74 | 1020.0 |
| 20260506045011 | 57 | 188 | 2.0 | 3.0 | 0.00 | 0.19 | 0.19 | 72 | 1019.6 |
| 20260506044509 | 57 | 167 | 0.0 | 4.0 | 0.00 | 0.19 | 0.19 | 71 | 1019.6 |
| 20260506044006 | 57 | 169 | 1.0 | 2.0 | 0.00 | 0.19 | 0.19 | 70 | 1019.4 |
| 20260506043502 | 57 | 164 | 1.0 | 1.0 | 0.00 | 0.19 | 0.19 | 69 | 1019.3 |
| 20260506043001 | 57 | 161 | 0.0 | 0.0 | 0.00 | 0.19 | 0.19 | 69 | 1019.2 |
| 20260506042500 | 57 | 191 | 2.0 | 2.0 | 0.00 | 0.19 | 0.19 | 68 | 1019.1 |
| 20260506041957 | 57 | 164 | 1.0 | 2.0 | 0.00 | 0.19 | 0.19 | 68 | 1019.0 |
| 20260506041455 | 57 | 166 | 1.0 | 1.0 | 0.00 | 0.19 | 0.19 | 68 | 1019.1 |
| 20260506040952 | 57 | 181 | 1.0 | 2.0 | 0.00 | 0.19 | 0.19 | 68 | 1018.9 |
| 20260506040450 | 57 | 197 | 1.0 | 3.0 | 0.00 | 0.19 | 0.19 | 67 | 1018.6 |
| 20260506035946 | 58 | 159 | 0.0 | 1.0 | 0.00 | 0.19 | 0.19 | 67 | 1019.0 |
| 20260506035443 | 58 | 183 | 3.0 | 3.0 | 0.00 | 0.19 | 0.19 | 67 | 1018.8 |
| 20260506034939 | 58 | 177 | 1.0 | 2.0 | 0.00 | 0.19 | 0.19 | 66 | 1018.9 |
| 20260506034437 | 58 | 162 | 0.0 | 2.0 | 0.00 | 0.19 | 0.19 | 66 | 1018.7 |
| 20260506033934 | 58 | 173 | 1.0 | 2.0 | 0.00 | 0.19 | 0.19 | 65 | 1018.7 |
| 20260506033431 | 58 | 205 | 2.0 | 3.0 | 0.00 | 0.19 | 0.19 | 65 | 1018.5 |
| 20260506032928 | 58 | 169 | 1.0 | 2.0 | 0.00 | 0.19 | 0.19 | 65 | 1018.4 |
| 20260506032425 | 59 | 171 | 1.0 | 4.0 | 0.00 | 0.19 | 0.19 | 65 | 1017.9 |
| 20260506031921 | 59 | 222 | 2.0 | 3.0 | 0.00 | 0.19 | 0.19 | 64 | 1018.3 |
| 20260506031419 | 59 | 165 | 1.0 | 4.0 | 0.00 | 0.19 | 0.19 | 65 | 1018.2 |
| 20260506030916 | 59 | 201 | 3.0 | 4.0 | 0.00 | 0.19 | 0.19 | 64 | 1018.2 |
| 20260506030414 | 59 | 183 | 2.0 | 3.0 | 0.00 | 0.19 | 0.19 | 64 | 1018.2 |
| 20260506025911 | 59 | 174 | 2.0 | 4.0 | 0.00 | 0.19 | 0.19 | 64 | 1018.1 |
| 20260506025408 | 59 | 183 | 2.0 | 6.0 | 0.00 | 0.19 | 0.19 | 63 | 1017.9 |
| 20260506024904 | 60 | 168 | 1.0 | 4.0 | 0.00 | 0.19 | 0.19 | 63 | 1017.8 |
| 20260506024402 | 60 | 213 | 2.0 | 6.0 | 0.00 | 0.19 | 0.19 | 62 | 1017.9 |
| 20260506023857 | 60 | 213 | 3.0 | 4.0 | 0.00 | 0.19 | 0.19 | 62 | 1017.6 |
| 20260506023354 | 60 | 315 | 3.0 | 4.0 | 0.00 | 0.19 | 0.19 | 61 | 1017.6 |
| 20260506022851 | 60 | 221 | 4.0 | 6.0 | 0.00 | 0.19 | 0.19 | 60 | 1017.5 |
| 20260506022349 | 60 | 251 | 4.0 | 7.0 | 0.00 | 0.19 | 0.19 | 60 | 1017.4 |
| 20260506021847 | 60 | 187 | 3.0 | 4.0 | 0.00 | 0.19 | 0.19 | 60 | 1017.4 |
| 20260506021343 | 61 | 263 | 5.0 | 7.0 | 0.00 | 0.19 | 0.19 | 60 | 1017.5 |
| 20260506020840 | 61 | 194 | 3.0 | 9.0 | 0.00 | 0.19 | 0.19 | 59 | 1017.3 |
| 20260506020338 | 61 | 178 | 4.0 | 8.0 | 0.00 | 0.19 | 0.19 | 58 | 1017.0 |
| 20260506015835 | 61 | 266 | 6.0 | 9.0 | 0.00 | 0.19 | 0.19 | 58 | 1017.4 |
| 20260506015333 | 62 | 251 | 4.0 | 6.0 | 0.00 | 0.19 | 0.19 | 58 | 1017.0 |
| 20260506014829 | 62 | 234 | 10.0 | 11.0 | 0.00 | 0.19 | 0.19 | 57 | 1017.0 |
| 20260506014326 | 62 | 195 | 5.0 | 9.0 | 0.00 | 0.19 | 0.19 | 57 | 1016.9 |
| 20260506013823 | 62 | 178 | 3.0 | 8.0 | 0.00 | 0.19 | 0.19 | 57 | 1016.9 |
| 20260506013320 | 63 | 178 | 2.0 | 4.0 | 0.00 | 0.19 | 0.19 | 57 | 1016.8 |
| 20260506012816 | 63 | 176 | 3.0 | 9.0 | 0.00 | 0.19 | 0.19 | 56 | 1016.7 |
| 20260506012314 | 63 | 185 | 4.0 | 11.0 | 0.00 | 0.19 | 0.19 | 55 | 1016.7 |
| 20260506011811 | 64 | 196 | 3.0 | 6.0 | 0.00 | 0.19 | 0.19 | 54 | 1016.6 |
| 20260506011307 | 64 | 280 | 5.0 | 7.0 | 0.00 | 0.19 | 0.19 | 55 | 1016.7 |
| 20260506010805 | 64 | 216 | 5.0 | 7.0 | 0.00 | 0.19 | 0.19 | 55 | 1016.7 |
| 20260506010303 | 64 | 257 | 3.0 | 7.0 | 0.00 | 0.19 | 0.19 | 55 | 1016.8 |
| 20260506005759 | 64 | 189 | 1.0 | 2.0 | 0.00 | 0.19 | 0.19 | 55 | 1016.8 |
| 20260506005256 | 64 | 195 | 4.0 | 8.0 | 0.00 | 0.19 | 0.19 | 56 | 1016.7 |
| 20260506004752 | 64 | 207 | 6.0 | 10.0 | 0.00 | 0.19 | 0.19 | 55 | 1016.8 |
| 20260506004250 | 64 | 225 | 6.0 | 7.0 | 0.00 | 0.19 | 0.19 | 55 | 1016.6 |